• Join FlightAware (Why Join?)
  • Login
  • US Flag 
03:34PM EST


 

Airport Tracker/Info


-or-


 

Live Flight TrackerFlight Track Log ✈ UCA3599 ✈ 17-Sep-2013 ✈ KBGM - KIAD

Flight Track Log - Related Links

Times and Time Zones

All times are in EDT time to prevent confusion due to time zone crossing. See the UCA3599 flight status page for this flight to view local times or setup timezone preferences in your user account.

Time Position Orientation Groundspeed Altitude Reporting Facility
EDT Latitude Longitude Course Direction KTS MPH feet Rate Location/Type
06:29AM 42.2036 -76.0533 209° Southwest 139 160 4,200  Level New York Center
06:30AM 42.1603 -76.0861 209° Southwest 151 174 5,600 1,440 Climbing New York Center
06:31AM 42.1128 -76.1272 213° Southwest 182 209 7,100 1,440 Climbing New York Center
06:32AM 42.0653 -76.1650 211° Southwest 197 227 8,500 1,380 Climbing New York Center
06:33AM 42.0153 -76.2114 215° Southwest 216 249 9,900 1,260 Climbing New York Center
06:34AM 41.9592 -76.2569 211° Southwest 216 249 11,100 1,260 Climbing New York Center
06:35AM 41.9069 -76.3056 215° Southwest 222 255 12,500 1,260 Climbing New York Center
06:36AM 41.8528 -76.3483 210° Southwest 227 261 13,700 1,200 Climbing New York Center
06:37AM 41.8072 -76.3892 214° Southwest 227 261 14,900 1,080 Climbing New York Center
06:38AM 41.7486 -76.4369 211° Southwest 232 267 15,900 540 Climbing New York Center
06:39AM 41.6814 -76.4925 212° Southwest 250 288 16,000  Climbing New York Center
06:40AM 41.6142 -76.5478 212° Southwest 276 318 15,900 -60 Descending New York Center
06:41AM 41.5533 -76.6006 213° Southwest 290 334 15,900  Level New York Center
06:42AM 41.4839 -76.6556 211° Southwest 290 334 15,900  Level New York Center
06:43AM 41.4142 -76.7158 213° Southwest 296 341 15,900  Level New York Center
06:44AM 41.3425 -76.7731 211° Southwest 296 341 15,900  Level New York Center
06:45AM 41.2644 -76.7964 193° South 296 341 15,900  Level New York Center
06:46AM 41.1803 -76.8083 186° South 296 341 16,000  Climbing New York Center
06:47AM 41.0983 -76.8258 189° South 301 346 15,900 -60 Descending New York Center
06:48AM 41.0161 -76.8433 189° South 301 346 15,900  Level New York Center
06:49AM 40.9256 -76.8600 188° South 301 346 15,900  Level New York Center
06:50AM 40.8519 -76.8753 189° South 296 341 16,000  Climbing New York Center
06:51AM 40.7614 -76.8919 188° South 296 341 16,000  Level New York Center
06:52AM 40.6872 -76.9181 195° South 302 348 16,000  Level New York Center
06:53AM 40.6003 -76.9458 194° South 302 348 16,000  Level New York Center
06:54AM 40.5261 -76.9664 192° South 307 353 16,000  Level New York Center
06:55AM 40.4392 -76.9969 195° South 302 348 16,000  Level New York Center
06:56AM 40.3650 -77.0175 192° South 296 341 16,000 -180 Level New York Center
06:57AM 40.2761 -77.0447 193° South 301 346 15,700 -480 Descending New York Center
06:58AM 40.2019 -77.0681 194° South 301 346 15,100 -720 Descending New York Center
07:00AM 40.0000 -77.1333 194° South 307 353 13,500 -780 Descending Potomac TRACON
07:01AM 39.9333 -77.1500 191° South 296 341 12,700 -840 Descending Potomac TRACON
07:02AM 39.8667 -77.1667 191° South 294 338 12,000 -780 Descending Potomac TRACON
07:03AM 39.7833 -77.2000 197° South 297 342 11,300 -840 Descending Potomac TRACON
07:04AM 39.7000 -77.2333 197° South 296 341 10,400 -960 Descending Potomac TRACON
07:05AM 39.6333 -77.2667 201° Southwest 288 331 9,500 -900 Descending Potomac TRACON
07:06AM 39.5667 -77.3000 201° Southwest 282 325 8,800 -900 Descending Potomac TRACON
07:07AM 39.4833 -77.3333 197° South 282 325 7,700 -900 Descending Potomac TRACON
07:08AM 39.4167 -77.3667 201° Southwest 280 322 7,000 -840 Descending Potomac TRACON
07:09AM 39.3500 -77.3667 180° South 273 314 6,100 -1,080 Descending Potomac TRACON
07:10AM 39.2667 -77.3667 180° South 274 315 5,000 -1,080 Descending Potomac TRACON
07:11AM 39.2000 -77.3667 180° South 269 310 4,100 -540 Descending Potomac TRACON
07:12AM 39.1167 -77.3667 180° South 261 300 4,000 -60 Descending Potomac TRACON
07:13AM 39.0500 -77.3667 180° South 259 298 4,000 -180 Level Potomac TRACON
07:14AM 38.9833 -77.3667 180° South 266 306 3,700 -720 Descending Potomac TRACON
07:15AM 38.9167 -77.3667 180° South 234 269 2,800 -900 Descending Potomac TRACON
07:16AM 38.8500 -77.3667 180° South 225 259 2,000 -420 Descending Potomac TRACON
07:17AM 38.8167 -77.4167 229° Southwest 236 272 2,000 -240 Level Potomac TRACON
07:18AM 38.8500 -77.4333 339° North 141 162 1,600 -540 Descending Potomac TRACON
07:19AM 38.8833 -77.4333 360° North 109 125 1,000 -600 Descending Potomac TRACON